Location: ??????
(55.8274°N, 37.9338°E)
Time: 04:07:16
(UTC+00:00)

NOSS 3-4 (A) - Visible Passes

Search period start: 25 July 2024 00:00
Search period end: 04 August 2024 00:00
Orbit: 801 x 1410 km, 63.4° (Epoch: 04 June)

Date Brightness Start Highest point End Pass type
(mag) Time Alt. Az. Time Alt. Az. Time Alt. Az.
25 Jul 4.5 22:11:28 17° SSE 22:14:25 27° ESE 22:19:19 10° ENE visible
25 Jul 3.4 23:58:55 10° SW 00:04:31 88° NNW 00:10:52 10° NE visible
26 Jul 4.9 21:27:46 14° SE 21:29:59 18° ESE 21:33:45 10° ENE visible
26 Jul 3.4 23:15:10 16° SW 23:19:39 69° SE 23:25:50 10° NE visible
27 Jul 5.2 20:44:25 10° ESE 20:45:41 11° ESE 20:46:58 10° E visible
27 Jul 3.7 22:31:27 21° SSW 22:34:54 49° SE 22:40:47 10° NE visible
28 Jul 3.8 00:20:03 10° WSW 00:25:41 61° NNW 00:32:06 10° NE visible
28 Jul 4.1 21:47:42 23° SSE 21:50:17 34° ESE 21:55:38 10° ENE visible
28 Jul 3.5 23:35:06 10° WSW 23:40:38 77° NW 23:47:03 10° NE visible
29 Jul 4.5 21:03:54 19° SE 21:05:47 23° ESE 21:10:17 10° ENE visible
29 Jul 3.3 22:51:17 17° SW 22:55:42 82° SE 23:02:01 10° NE visible
30 Jul 4.3 00:41:27 10° W 00:47:04 48° NNW 00:53:29 10° ENE visible
30 Jul 4.9 20:20:04 14° SE 20:21:25 15° ESE 20:24:28 10° ENE visible
30 Jul 3.4 22:07:28 23° SSW 22:10:54 60° SE 22:16:58 10° NE visible
30 Jul 4.0 23:56:16 10° W 00:01:53 55° NNW 00:08:19 10° NE visible
31 Jul 3.7 21:23:35 26° S 21:26:12 42° SE 21:31:53 10° ENE visible
31 Jul 3.7 23:11:10 10° WSW 23:16:48 67° NNW 23:23:13 10° NE visible
01 Aug 4.2 20:39:40 23° SSE 20:41:38 29° ESE 20:46:40 10° ENE visible
01 Aug 3.3 22:27:03 15° SW 22:31:48 85° NW 22:38:11 10° NE visible
02 Aug 4.5 00:17:43 10° W 00:23:21 45° N 00:29:47 10° ENE visible
02 Aug 4.6 19:55:41 17° SE 19:57:11 19° ESE 20:01:11 10° ENE visible
02 Aug 3.2 21:43:04 21° SW 21:46:55 73° SE 21:53:09 10° NE visible
02 Aug 4.2 23:32:31 10° W 23:38:09 50° NNW 23:44:34 10° ENE visible
03 Aug 5.0 19:11:38 11° ESE 19:12:51 12° ESE 19:14:52 10° E visible
03 Aug 3.4 20:59:01 24° SSW 21:02:09 52° SE 21:08:06 10° NE visible
03 Aug 3.9 22:47:22 10° WSW 22:53:00 59° NNW 22:59:25 10° NE visible
